This is the latest recevied weather packets stored in our database for station/object KF7ROW. If no packets are shown the sender has not sent any weather packets the latest 10 day(s).
| Time | Temp. | Humidity | Pressure | Rain* | Wind** | Luminosity | Snow |
|---|---|---|---|---|---|---|---|
| 1777851100 | 22.22° C | 61% | 1013.2 hPa | 0 mm | - | 484 W/m² | - |
| 1777850797 | 22.22° C | 62% | 1013.1 hPa | 0 mm | - | 498 W/m² | - |
| 1777850494 | 22.22° C | 62% | 1013 hPa | 0 mm | - | 510 W/m² | - |
| 1777850192 | 22.78° C | 58% | 1012.9 hPa | 0 mm | - | 519 W/m² | - |
| 1777849888 | 22.78° C | 63% | 1013.2 hPa | 0 mm | - | 536 W/m² | - |
| 1777849585 | 22.22° C | 62% | 1012.9 hPa | 0 mm | - | 547 W/m² | - |
| 1777849283 | 22.78° C | 61% | 1013 hPa | 0 mm | - | 559 W/m² | - |
| 1777848980 | 22.78° C | 59% | 1013.2 hPa | 0 mm | - | 570 W/m² | - |
| 1777848679 | 22.22° C | 63% | 1013.1 hPa | 0 mm | - | 583 W/m² | - |
| 1777848377 | 22.78° C | 60% | 1013.3 hPa | 0 mm | - | 593 W/m² | - |
| 1777848075 | 22.78° C | 57% | 1013.2 hPa | 0 mm | - | 606 W/m² | - |
| 1777847773 | 22.78° C | 57% | 1013.4 hPa | 0 mm | - | 618 W/m² | - |
| 1777847468 | 22.22° C | 57% | 1013.4 hPa | 0 mm | - | 627 W/m² | - |
| 1777847166 | 22.22° C | 60% | 1013.6 hPa | 0 mm | - | 638 W/m² | - |
| 1777846864 | 22.22° C | 60% | 1013.6 hPa | 0 mm | - | 647 W/m² | - |
| 1777846562 | 22.22° C | 59% | 1013.7 hPa | 0 mm | - | 655 W/m² | - |
| 1777846259 | 22.22° C | 58% | 1013.7 hPa | 0 mm | - | 665 W/m² | - |
| 1777845955 | 22.22° C | 57% | 1013.8 hPa | 0 mm | - | 674 W/m² | - |
| 1777845652 | 22.22° C | 58% | 1013.7 hPa | 0 mm | - | 682 W/m² | - |
| 1777845349 | 22.78° C | 57% | 1013.7 hPa | 0 mm | - | 691 W/m² | - |
| 1777845046 | 22.78° C | 58% | 1013.8 hPa | 0 mm | - | 698 W/m² | - |
| 1777844745 | 22.22° C | 59% | 1013.9 hPa | 0 mm | - | 706 W/m² | - |
| 1777844441 | 22.22° C | 60% | 1013.7 hPa | 0 mm | - | 713 W/m² | - |
| 1777844139 | 22.22° C | 61% | 1013.8 hPa | 0 mm | - | 720 W/m² | - |
| 1777843836 | 21.67° C | 65% | 1013.7 hPa | 0 mm | - | 726 W/m² | - |
* Rain latest hour (hover to see other rain measurements)
** Current wind speed in m/s (hover to see current wind gust speed)